Find NNS 30090

NORAD ID: 2176 Int'l Des: 1966-041 Owner: NAVAIR Country: US operational
LEOCIRCULARRETROGRADE

当前视图

正在加载3D地球...

About NNS 30090

NNS 30090 (NORAD 2176) is a satellite by NAVAIR of US. It operates in LEO, CIRCULAR, RETROGRADE orbit

关于 NNS 30090

正在加载描述...

即将过境

Passes for default location (London). Set your location on the main map for personalized predictions.

高度历史

Loading altitude history...

两行轨道根数

1 2176U 66041A 26159.76770987 .00000247 00000-0 14586-3 0 9997
2 2176 90.2311 83.0033 0062335 132.3696 228.2786 14.04328179 66253
Epoch: Jun 8, 2026 • Age: 9 hours

当前状态

高度 841.1 km
速度 7.45 km/s
星下点 22.58°N, 50.2°W
类型 other

Most Searched